When you browse on this site, cookies collect data to enhance your experience and personalize the content and advertising you see.
Visit our Privacy Policy to learn more. By continuing to use the site, you agree to this use of cookies and data.
  • In Hungary
  • List of Countries
  • For 7 days
  • Water Temperature
  • Satellite Maps
  • Weather Map
  • News
  • Weather Widgets
  • user-avatar
    Login

    Hourly Weather Chettipalaiyam

    Today, 19 January, Saturday

    Time Temperature Precipitation Wind Pressure Humidity
    00:00 +21°C° 0 mm 2 mps 726 mmHg 65%
    01:00 +21°C° 0 mm 2 mps 726 mmHg 70%
    02:00 +20°C° 0 mm 2 mps 726 mmHg 75%
    03:00 +20°C° 0 mm 2 mps 726 mmHg 79%
    04:00 +19°C° 0 mm 2 mps 726 mmHg 82%
    05:00 +19°C° 0 mm 2 mps 726 mmHg 85%
    06:00 +20°C° 0 mm 2 mps 726 mmHg 81%
    07:00 +21°C° 0 mm 2 mps 726 mmHg 78%
    08:00 +22°C° 0 mm 3 mps 727 mmHg 75%
    09:00 +25°C° 0 mm 3 mps 727 mmHg 65%
    10:00 +27°C° 0 mm 3 mps 727 mmHg 55%
    11:00 +28°C° 0 mm 3 mps 727 mmHg 45%
    12:00 +29°C° 0 mm 3 mps 727 mmHg 40%
    13:00 +32°C° 0 mm 4 mps 726 mmHg 34%
    14:00 +33°C° 0 mm 4 mps 725 mmHg 29%
    15:00 +31°C° 0 mm 3 mps 725 mmHg 30%
    16:00 +31°C° 0 mm 3 mps 725 mmHg 32%
    17:00 +30°C° 0 mm 3 mps 725 mmHg 33%
    18:00 +28°C° 0 mm 2 mps 725 mmHg 37%
    19:00 +26°C° 0 mm 2 mps 726 mmHg 41%
    20:00 +24°C° 0 mm 2 mps 726 mmHg 45%
    21:00 +23°C° 0 mm 2 mps 726 mmHg 50%
    22:00 +23°C° 0 mm 2 mps 727 mmHg 56%
    23:00 +21°C° 0 mm 3 mps 727 mmHg 61%

    Tomorrow, 20 January, Sunday

    Time Temperature Precipitation Wind Pressure Humidity
    00:00 +21°C° 0 mm 2 mps 727 mmHg 68%
    01:00 +20°C° 0 mm 2 mps 727 mmHg 75%
    02:00 +20°C° 0 mm 2 mps 727 mmHg 82%
    03:00 +19°C° 0 mm 2 mps 727 mmHg 84%
    04:00 +19°C° 0 mm 2 mps 727 mmHg 86%
    05:00 +19°C° 0 mm 1 mps 727 mmHg 88%
    06:00 +19°C° 0 mm 2 mps 728 mmHg 83%
    07:00 +20°C° 0 mm 2 mps 728 mmHg 79%
    08:00 +21°C° 0 mm 3 mps 729 mmHg 75%
    09:00 +24°C° 0 mm 3 mps 728 mmHg 62%
    10:00 +26°C° 0 mm 3 mps 728 mmHg 50%
    11:00 +28°C° 0 mm 4 mps 728 mmHg 37%
    12:00 +29°C° 0 mm 4 mps 727 mmHg 32%
    13:00 +30°C° 0 mm 4 mps 727 mmHg 27%
    14:00 +33°C° 0 mm 4 mps 726 mmHg 21%
    15:00 +32°C° 0 mm 4 mps 726 mmHg 23%
    16:00 +30°C° 0 mm 3 mps 726 mmHg 25%
    17:00 +30°C° 0 mm 3 mps 725 mmHg 27%
    18:00 +28°C° 0 mm 2 mps 726 mmHg 30%
    19:00 +26°C° 0 mm 2 mps 726 mmHg 33%
    20:00 +24°C° 0 mm 2 mps 727 mmHg 37%
    21:00 +23°C° 0 mm 2 mps 727 mmHg 40%
    22:00 +23°C° 0 mm 2 mps 727 mmHg 43%
    23:00 +21°C° 0 mm 2 mps 727 mmHg 47%

    Day after tomorrow, 21 January, Monday

    Time Temperature Precipitation Wind Pressure Humidity
    00:00 +20°C° 0 mm 2 mps 727 mmHg 53%
    01:00 +20°C° 0 mm 2 mps 727 mmHg 59%
    02:00 +19°C° 0 mm 2 mps 726 mmHg 65%
    03:00 +19°C° 0 mm 2 mps 726 mmHg 69%
    04:00 +18°C° 0 mm 2 mps 726 mmHg 73%
    05:00 +18°C° 0 mm 2 mps 726 mmHg 77%
    06:00 +19°C° 0 mm 2 mps 727 mmHg 74%
    07:00 +19°C° 0 mm 2 mps 728 mmHg 71%
    08:00 +20°C° 0 mm 3 mps 728 mmHg 69%
    09:00 +24°C° 0 mm 3 mps 728 mmHg 59%
    10:00 +26°C° 0 mm 3 mps 728 mmHg 49%
    11:00 +28°C° 0 mm 3 mps 728 mmHg 39%
    12:00 +29°C° 0 mm 4 mps 727 mmHg 33%
    13:00 +30°C° 0 mm 4 mps 726 mmHg 28%
    14:00 +33°C° 0 mm 4 mps 725 mmHg 22%
    15:00 +31°C° 0 mm 3 mps 725 mmHg 24%
    16:00 +30°C° 0 mm 3 mps 725 mmHg 25%
    17:00 +30°C° 0 mm 3 mps 725 mmHg 26%
    18:00 +28°C° 0 mm 2 mps 725 mmHg 29%
    19:00 +26°C° 0 mm 2 mps 726 mmHg 32%
    20:00 +24°C° 0 mm 2 mps 726 mmHg 35%
    21:00 +23°C° 0 mm 2 mps 726 mmHg 40%
    22:00 +22°C° 0 mm 1 mps 727 mmHg 44%
    23:00 +21°C° 0 mm 1 mps 727 mmHg 49%

    22 January, Tuesday

    Time Temperature Precipitation Wind Pressure Humidity
    00:00 +21°C° 0 mm 1 mps 726 mmHg 57%
    01:00 +20°C° 0 mm 1 mps 726 mmHg 65%
    02:00 +19°C° 0 mm 2 mps 725 mmHg 73%
    03:00 +19°C° 0 mm 1 mps 725 mmHg 79%
    04:00 +19°C° 0 mm 1 mps 725 mmHg 85%
    05:00 +18°C° 0 mm 1 mps 725 mmHg 91%
    06:00 +18°C° 0 mm 2 mps 726 mmHg 86%
    07:00 +19°C° 0 mm 2 mps 727 mmHg 81%
    08:00 +21°C° 0 mm 2 mps 728 mmHg 76%
    09:00 +24°C° 0 mm 2 mps 728 mmHg 66%
    10:00 +26°C° 0 mm 3 mps 728 mmHg 56%
    11:00 +28°C° 0 mm 3 mps 728 mmHg 46%
    12:00 +29°C° 0 mm 3 mps 727 mmHg 41%
    13:00 +30°C° 0 mm 3 mps 726 mmHg 35%
    14:00 +31°C° 0 mm 3 mps 725 mmHg 30%
    15:00 +31°C° 0 mm 3 mps 725 mmHg 30%
    16:00 +31°C° 0 mm 2 mps 725 mmHg 31%
    17:00 +31°C° 0 mm 2 mps 725 mmHg 31%
    18:00 +28°C° 0 mm 2 mps 725 mmHg 34%
    19:00 +26°C° 0 mm 1 mps 726 mmHg 36%
    20:00 +24°C° 0 mm 1 mps 727 mmHg 39%
    21:00 +24°C° 0 mm 1 mps 727 mmHg 41%
    22:00 +23°C° 0 mm 1 mps 727 mmHg 44%
    23:00 +22°C° 0 mm 1 mps 727 mmHg 47%

    23 January, Wednesday

    Time Temperature Precipitation Wind Pressure Humidity
    00:00 +22°C° 0 mm 1 mps 726 mmHg 50%
    01:00 +21°C° 0 mm 1 mps 726 mmHg 53%
    02:00 +21°C° 0 mm 1 mps 725 mmHg 57%
    03:00 +20°C° 0 mm 1 mps 726 mmHg 63%
    04:00 +20°C° 0 mm 1 mps 726 mmHg 70%
    05:00 +20°C° 0 mm 1 mps 726 mmHg 76%
    06:00 +20°C° 0 mm 2 mps 726 mmHg 78%
    07:00 +20°C° 0 mm 2 mps 727 mmHg 79%
    08:00 +21°C° 0 mm 2 mps 728 mmHg 80%
    09:00 +25°C° 0 mm 2 mps 727 mmHg 69%
    10:00 +27°C° 0 mm 3 mps 727 mmHg 58%
    11:00 +29°C° 0 mm 3 mps 727 mmHg 47%
    12:00 +30°C° 0 mm 3 mps 726 mmHg 42%
    13:00 +31°C° 0 mm 3 mps 725 mmHg 36%
    14:00 +33°C° 0 mm 3 mps 725 mmHg 31%
    15:00 +33°C° 0 mm 3 mps 725 mmHg 31%
    16:00 +33°C° 0 mm 3 mps 725 mmHg 32%
    17:00 +31°C° 0 mm 2 mps 725 mmHg 33%
    18:00 +29°C° 0 mm 2 mps 725 mmHg 36%
    19:00 +27°C° 0 mm 2 mps 726 mmHg 39%
    20:00 +25°C° 0 mm 2 mps 727 mmHg 43%
    21:00 +25°C° 0 mm 1 mps 727 mmHg 47%
    22:00 +24°C° 0 mm 1 mps 727 mmHg 52%
    23:00 +23°C° 0 mm 1 mps 727 mmHg 56%

    24 January, Thursday

    Time Temperature Precipitation Wind Pressure Humidity
    00:00 +23°C° 0 mm 1 mps 726 mmHg 63%
    01:00 +22°C° 0 mm 1 mps 726 mmHg 70%
    02:00 +21°C° 0 mm 2 mps 726 mmHg 77%
    03:00 +21°C° 0 mm 1 mps 726 mmHg 82%
    04:00 +21°C° 0 mm 1 mps 726 mmHg 88%
    05:00 +20°C° 0 mm 1 mps 726 mmHg 93%
    06:00 +21°C° 0 mm 1 mps 727 mmHg 89%
    07:00 +21°C° 0 mm 2 mps 727 mmHg 85%
    08:00 +23°C° 0 mm 2 mps 728 mmHg 81%
    09:00 +25°C° 0 mm 3 mps 728 mmHg 70%
    10:00 +27°C° 0 mm 3 mps 728 mmHg 59%
    11:00 +29°C° 0 mm 3 mps 728 mmHg 48%
    12:00 +30°C° 0 mm 3 mps 727 mmHg 43%
    13:00 +31°C° 0 mm 3 mps 726 mmHg 38%
    14:00 +34°C° 0 mm 3 mps 725 mmHg 33%
    15:00 +33°C° 0 mm 3 mps 725 mmHg 34%
    16:00 +33°C° 0 mm 3 mps 725 mmHg 35%
    17:00 +33°C° 0 mm 3 mps 725 mmHg 36%
    18:00 +30°C° 0 mm 2 mps 725 mmHg 41%
    19:00 +28°C° 0 mm 2 mps 726 mmHg 46%
    20:00 +26°C° 0 mm 2 mps 726 mmHg 51%
    21:00 +26°C° 0 mm 2 mps 727 mmHg 56%
    22:00 +25°C° 0 mm 2 mps 727 mmHg 61%
    23:00 +24°C° 0 mm 2 mps 727 mmHg 67%
    Show more